Ord, NE

2:13 PM CST on February 08, 2016 (GMT -0600)
Sharp

Weather History for KODX - November, 2011

Change the Weather History Date:

Tuesday, November 29, 2011

  Actual Average Record
Temperature  
Mean Temperature 32 °F 30 °F  
Max Temperature 45 °F 42 °F 75 °F (2014)
Min Temperature 18 °F 18 °F 3 °F (2001)
Degree Days  
Heating Degree Days 33 35  
Month to date heating degree days 819 823  
Since 1 July heating degree days 1448 1443  
Cooling Degree Days 0 0  
Month to date cooling degree days 0 0  
Year to date cooling degree days 922 845  
Moisture  
Dew Point 19 °F    
Average Humidity 63    
Maximum Humidity 92    
Minimum Humidity 33    
Precipitation  
Precipitation 0.00 in 0.02 in 0.43 in (2004)
Month to date precipitation 0.03 1.04  
Year to date precipitation 22.91 24.32  
Sea Level Pressure  
Sea Level Pressure 30.34 in    
Wind  
Wind Speed 4 mph (WSW)    
Max Wind Speed 15 mph    
Max Gust Speed 28 mph    
Visibility 10 miles    
Events      
T = Trace of Precipitation, MM = Missing Value Source: NWS Daily Summary

Daily Weather History Graph

Daily Weather History Graph

Search for Another Location

Airport or City:

Trip Planner

Search our weather history database for the weather conditions in past years. The results will help you decide how hot, cold, wet, or windy it might be!

Date:

Astronomy

Nov. 29, 2011 Rise Set
Actual Time 7:40 AM CST 5:07 PM CST
Civil Twilight 7:09 AM CST 5:37 PM CST
Nautical Twilight 6:35 AM CST 6:12 PM CST
Astronomical Twilight 6:02 AM CST 6:45 PM CST
Moon 11:26 AM CST (11/29) 10:03 PM CST (11/29)
Length of Visible Light 10h 27m
Length of Day
9h 26m
Waxing Crescent, 24% of the Moon is Illuminated
Nov 29
Waxing Crescent
Dec 2
First Quarter
Dec 10
Full
Dec 17
Last Quarter
Dec 24
New

Hourly Weather History & Observations

Time (CST) Temp. Windchill Dew Point Humidity Pressure Visibility Wind Dir Wind Speed Gust Speed Precip Events Conditions
1:53 AM 28.9 °F 19.8 °F 25.0 °F 85% 30.36 in 10.0 mi NW 10.4 mph - N/A   Clear
2:53 AM 28.0 °F 20.0 °F 23.0 °F 81% 30.38 in 10.0 mi NNW 8.1 mph - N/A   Clear
3:53 AM 25.0 °F 19.3 °F 21.9 °F 88% 30.39 in 10.0 mi NW 4.6 mph - N/A   Clear
4:53 AM 24.1 °F 16.0 °F 19.9 °F 84% 30.40 in 10.0 mi NW 6.9 mph - N/A   Clear
5:53 AM 19.9 °F 12.1 °F 18.0 °F 92% 30.41 in 10.0 mi NW 5.8 mph - N/A   Clear
6:53 AM 18.0 °F 9.8 °F 15.1 °F 88% 30.42 in 10.0 mi NW 5.8 mph - N/A   Clear
7:53 AM 19.0 °F - 16.0 °F 88% 30.44 in 10.0 mi Calm Calm - N/A   Clear
8:53 AM 24.1 °F - 21.0 °F 88% 30.44 in 10.0 mi Calm Calm - N/A   Clear
9:53 AM 32.0 °F 28.7 °F 25.0 °F 75% 30.44 in 10.0 mi NNW 3.5 mph - N/A   Clear
10:53 AM 35.1 °F - 26.1 °F 70% 30.44 in 10.0 mi Calm Calm - N/A   Overcast
11:53 AM 39.0 °F - 25.0 °F 57% 30.40 in 10.0 mi Calm Calm - N/A   Overcast
12:53 PM 42.1 °F 39.2 °F 23.0 °F 47% 30.37 in 10.0 mi SW 4.6 mph - N/A   Clear
1:53 PM 44.1 °F 40.8 °F 17.1 °F 34% 30.34 in 10.0 mi SW 5.8 mph - N/A   Mostly Cloudy
2:53 PM 44.1 °F 42.5 °F 19.9 °F 38% 30.33 in 10.0 mi SW 3.5 mph - N/A   Mostly Cloudy
3:53 PM 43.0 °F 40.3 °F 19.0 °F 38% 30.31 in 10.0 mi SSW 4.6 mph - N/A   Overcast
4:53 PM 42.1 °F 40.2 °F 19.0 °F 40% 30.28 in 10.0 mi SSE 3.5 mph - N/A   Clear
5:53 PM 32.0 °F 28.7 °F 17.1 °F 54% 30.29 in 10.0 mi SSW 3.5 mph - N/A   Clear
6:53 PM 28.0 °F 22.8 °F 16.0 °F 61% 30.30 in 10.0 mi SSW 4.6 mph - N/A   Clear
7:53 PM 24.8 °F 19.1 °F 14.0 °F 64% 30.19 in 10.0 mi SSW 4.6 mph - N/A   Clear
8:53 PM 26.1 °F - 15.1 °F 63% 30.26 in 10.0 mi Calm Calm - N/A   Clear
9:53 PM 28.0 °F 22.8 °F 16.0 °F 61% 30.22 in 10.0 mi South 4.6 mph - N/A   Clear
10:53 PM 24.1 °F 18.2 °F 18.0 °F 77% 30.19 in 10.0 mi ESE 4.6 mph - N/A   Clear
11:53 PM 28.0 °F - 16.0 °F 61% 30.16 in 10.0 mi Calm Calm - N/A   Clear